Home > Weather > Atlantic City > Past weeks

Flag for USA Weather for the Past 2 Weeks in Atlantic City, New Jersey, USA

Now
49 °F

Fog.


Feels Like: 45 °F
Forecast: 50 / 53 °F
Wind: 10 mph from Northeast

Location: Atlantic City International Airport

Current Time: May 4, 2016 at 6:50:56 AM

Latest Report: May 4, 2016 at 5:54 AM


Visibility: 4 mi

Pressure: 29.76 "Hg

Humidity: 97%

Dew Point: 48 °F

Location of Atlantic CityLocation

Historic Weather in Atlantic City — Graph

°F

Atlantic City Temperature Yesterday

Maximum temperature yesterday: 55 °F (at 12:50 AM)
Minimum temperature yesterday: 49 °F (at 11:54 PM)
Average temperature yesterday: 53 °F

High & Low Weather Summary for the Past Weeks

 TemperatureHumidityPressure
High85 °F (Apr 26, 3:54 PM)100% (May 1, 3:54 PM)30.27 "Hg (May 1, 3:54 PM)
Low40 °F (Apr 21, 4:54 AM)25% (Apr 19, 1:54 PM)29.60 "Hg (Apr 26, 3:54 PM)
Average55 °F73%29.99 "Hg
* Reported Apr 19 4:54 AM — May 4 4:54 AM, Atlantic City, Weather by CustomWeather, © 2016

Note: Actual official high and low records may vary slightly from our data, if they occured in-between our weather recording intervals... More about our weather records

Advertising

Atlantic City Weather History for the Previous 24 Hours

Scroll right to see more
 ConditionsComfort  
Time TempWeatherWind HumidityBarometerVisibility
4:54 AM
Wed, May 4
49 °FFog.7 mph97%29.76 "Hg2 mi
3:54 AM49 °FFog.7 mph100%29.77 "Hg5 mi
2:54 AM49 °FLow clouds.10 mph100%29.77 "Hg9 mi
1:54 AM49 °FFog.13 mph97%29.78 "Hg6 mi
12:54 AM49 °FFog.12 mph97%29.78 "Hg2 mi
11:54 PM
Tue, May 3
49 °FFog.12 mph97%29.80 "Hg2 mi
10:54 PM50 °FFog.12 mph96%29.83 "Hg2 mi
9:54 PM50 °FFog.12 mph96%29.82 "Hg4 mi
8:54 PM50 °FFog.12 mph96%29.82 "Hg5 mi
7:54 PM50 °FLow clouds.8 mph96%29.82 "Hg10 mi
6:54 PM52 °FLow clouds.12 mph93%29.81 "Hg10 mi
5:54 PM53 °FLow clouds.10 mph89%29.80 "Hg10 mi
4:54 PM54 °FLow clouds.10 mph90%29.79 "Hg10 mi
3:54 PM54 °FFog.10 mph93%29.78 "Hg4 mi
2:54 PM55 °FLow clouds.10 mph93%29.78 "Hg7 mi
1:54 PM54 °FLow clouds.10 mph97%29.79 "Hg8 mi
12:54 PM54 °FFog.9 mph97%29.79 "Hg2 mi
11:54 AM54 °FLow clouds.12 mph97%29.80 "Hg9 mi
10:54 AM54 °FLow clouds.8 mph97%29.82 "Hg10 mi
9:54 AM54 °FLight rain. Fog.10 mph97%29.80 "Hg5 mi
8:54 AM54 °FLight rain. Fog.9 mph97%29.80 "Hg1 mi
7:54 AM54 °FLight rain. Fog.7 mph97%29.80 "Hg1 mi
6:54 AM54 °FLight rain. Fog.5 mph100%29.80 "Hg1 mi
Weather by CustomWeather, © 2016

See weather overviewHow to use our weather pages